Regional Weather Roundup
Issued by NWS Charleston, SC

Current Version | Previous Version | Graphics & Text | Print | Product List | Glossary On
Versions: 1 2 3 4 5 6 7 8 9 10 11 12 13 14 15 16 17 18 19 20 21 22 23 24 25 26 27 28 29 30 31 32 33 34 35 36 37 38 39 40 41 42 43 44 45 46 47 48 49 50
000 ASUS42 KCHS 191625 RWRCHS REGIONAL WEATHER ROUNDUP NATIONAL WEATHER SERVICE CHARLESTON SC 1200 PM EDT SUN OCT 19 2014 NOTE: "FAIR" INDICATES FEW OR NO CLOUDS BELOW 12,000 FEET WITH NO SIGNIFICANT WEATHER AND/OR OBSTRUCTIONS TO VISIBILITY. NOT ALL STATIONS ARE QUALITY CONTROLLED BY THE NATIONAL WEATHER SERVICE. USE DATA WITH CAUTION...ESPECIALLY DEWPOINT OBSERVATIONS. SCZ027-030-031-034>040-042>050-191700- ...SOUTH CAROLINA... CITY SKY/WX TMP DP RH WIND PRES REMARKS N CHARLESTON MOSUNNY 68 45 43 N8 30.12S WATERFRONT PRK N/A 64 N/A N/A N15 N/A FORT JOHNSON NOT AVBL JOHNS ISLAND SUNNY 66 46 48 N10 30.11S PINOPOLIS N/A 63 46 55 N9 30.05R MONCKS CORNER FAIR 66 52 59 N8 30.12S SUMMERVILLE FAIR 64 46 52 NE7 30.13S BEAUFORT MCAS SUNNY 68 46 45 NE9 30.12S BEAUFORT ARPT FAIR 66 50 55 NE9G16 30.11F HILTON HEAD IS NOT AVBL GEORGETOWN NOT AVBL WALTERBORO SUNNY 68 39 34 N7 30.13F ORANGEBURG SUNNY 65 42 43 N10 30.14S BARNWELL FAIR 66 45 45 E7 30.14F AIKEN FAIR 64 46 52 N8 30.16F MANNING FAIR 68 46 45 N8 30.12F KINGSTREE NOT AVBL COLUMBIA MOSUNNY 66 41 40 N7 30.14F SUMTER SUNNY 64 45 48 N12G21 30.12F FLORENCE SUNNY 65 44 46 NE10 30.13R MYRTLE BEACH SUNNY 66 45 45 N14 30.10F N MYRTLE BEACH SUNNY 65 44 46 N9G21 30.09F $$ GAZ063-065-086>088-099>101-113>116-118-119-134-136>141-150-191700- ...GEORGIA... CITY SKY/WX TMP DP RH WIND PRES REMARKS SAVANNAH ARPT PTSUNNY 69 45 41 NE9 30.12F HUNTER AAF MOSUNNY 68 47 48 N8 30.10F FORT STEWART MOSUNNY 67 48 50 NE9 30.11F STATESBORO NOT AVBL SYLVANIA SUNNY 74 52 46 E9 30.14S CLAXTON FAIR 68 46 45 CALM 30.13F THOMSON SUNNY 66 53 62 N3 30.19F AUGUSTA-BUSH SUNNY 65 43 44 VRB3 30.14F AUGUSTA-DANIEL SUNNY 66 44 45 N5 30.15F SWAINSBORO FAIR 70 46 43 MISG 30.14F VIDALIA SUNNY 68 50 52 NE10 30.13F ALMA MOSUNNY 68 48 48 N8 30.12S WAYCROSS MOSUNNY 72 52 49 E10 30.12S JESUP FAIR 72 54 53 E8 30.12S BRUNSWICK MOSUNNY 72 52 49 NE10G18 30.12R SAINT SIMONS MOSUNNY 68 54 60 NE15G21 30.11R $$ SCZ027-028-034-036>038-045-046-048>050-GAZ119-141-191700- ...LAKE AND SUPPLEMENTAL COASTAL OBSERVATIONS... STATION/POSITION TIME TEMP WIND PRES WAVE SWELL AIR SEA DIR/SP/G HT/PER HT/PER/DIR (UTC) (F) (DEG/KT/KT) (MB) (FT/S) (FT/S/D) UPR LAKE MARION NOT AVBL WINYAH BAY 1600 63 350/ 7 1019.0S LAKE MURRAY 1500 62 360/ 4/ 8 1020.3R ACE BASIN NERRS 1600 67 20/ 4 1020.0S FORT PULASKI 1600 64 10/ 10/ 13 1020.0F SAPELO ISLAND NOT AVBL $$ ANZ835-935-AMZ111-154-330-350-352-354-374-450-454-472-191700- ...C-MAN AND BUOY OBSERVATIONS... STATION/POSITION TIME TEMP WIND PRES WAVE SWELL AIR SEA DIR/SP/G HT/PER HT/PER/DIR (UTC) (F) (DEG/KT/KT) (MB) (FT/S) (FT/S/D) FOLLY BEACH CMAN 1600 64 10/ 11/ 13 1020.0F BUOY 41004 1600 65 79 10/ 17/ 21 1018.3S 5/ 6 2/12 BUOY 41008 1600 67 76 40/ 17/ 21 1019.1R 6/ 6 2/ 70/11 5E ST. MARYS GA 1500 78 N/A 5/ 6 2/100/12 FRYING PAN BUOY 1600 62 76 360/ 17/ 23 1018.6F 5/ 6 2/120/11 BUOY 41025 NOT AVBL CAPE LOOKOUT NC 1600 61 350/ 14/ 17 1017.5F BUOY 41002 1501 74 80 330/ 21/ 25 1015.0 6/ 5 3/ 50/11 BUOY 41010 1600 79 81 300/ 6/ 8 1016.5F 4/ 9 3/ 80/ 9 BUOY 41012 NOT AVBL ST AUGUSTINE FL 1600 74 30/ 14/ 17 1018.5R CAPERS NEARSHORE 1500 62 40/ 12/ 16 N/A FRIPP NEARSHORE NOT AVBL $$

USA.gov is the U.S. government's official web portal to all federal, state and local government web resources and services.